Погода в Канзас-Сити

США     39°06′10″N   94°37′33″W
темп.,
°C
ветер,
м/с
пор.,
м/с
влажн.,
%
обл.,
%
осадки,
мм/ч
давл.,
гПа
погр.,
м
16 октября, сб
сб1601:00+8з39480 0.0 1022189
04:00+7зсз311500 0.0 1023258
07:00+6з39520 0.0 1025178
10:00+11зсз48430 0.0 1026393
13:00+17зсз58320 0.0 10251423
16:00+18зсз57290 0.0 10231711
19:00+13з22420 0.0 102323
22:00+11зюз22450 0.0 102423
17 октября, вс
вс1701:00+10юз22480 0.0 102428
04:00+9юз33500 0.0 102453
07:00+9юз33520 0.0 102441
10:00+14юз23430 0.0 1024223
13:00+20ююз34320 0.0 1022823
16:00+21ююз45320 0.0 10201158
19:00+15ю47530 0.0 1019122
22:00+13ю39580 0.0 1020152
18 октября, пн
пн1801:00+12ю412620 0.0 1019227
04:00+11ююз412640 0.0 1019239
07:00+10ююз412660 0.0 1019227
10:00+15ююз612510 0.0 1019422
13:00+21ю79350 0.0 1017949
16:00+21ю79360 0.0 10151227
19:00+16ю4125221 0.0 1015408
22:00+16ю61554100 0.0 1016547
19 октября, вт
вт1901:00+15ю616570 0.0 1015554
04:00+13ю617590 0.0 1015525
07:00+13ю616590 0.0 1014479
10:00+16ю717510 0.0 1014614
13:00+22ю812480 0.0 10131006
16:00+23ю812500 0.0 10111204
19:00+20ю714630 0.0 1012819
22:00+18ю716610 0.0 1014647
20 октября, ср
ср2001:00+16ююз515660 0.0 1015542
04:00+14ю51481100 0.6 1015375
07:00+14ююз41188100 1.9 1016364
10:00+17з467455 0.0 1017555
13:00+20з56400 0.0 1016927
16:00+20з69370 0.0 10151370
19:00+15з410490 0.0 1016364
22:00+12зсз410590 0.0 1018308